{"data":{"norad_id":64561,"epoch":"2026-09-19T06:43:34.089024Z","epoch_age_seconds":119905,"freshness":"FRESH","line1":"1 64561U 25135AK  26262.28025566  .00003487  00000+0  30858-3 0  9998","line2":"2 64561  97.7823  16.5939 0001800  95.3276 264.8151 14.96940388 67994","mean_motion":14.96940388,"eccentricity":0.00018,"inclination_deg":97.7823,"raan_deg":16.5939,"arg_perigee_deg":95.3276,"mean_anomaly_deg":264.8151,"bstar":0.00030858,"rev_number":6799,"period_min":96.196215396655,"perigee_km":575.10466655099,"apogee_km":577.60828420213,"semimajor_km":6954.4934753766,"source":"CELESTRAK","updated_at":"2026-09-20T09:00:34.877362Z"}}